Weather Roundup
Issued by NWS Springfield, MO

Current Version | Previous Version | Text Only | Print | Product List | Glossary On
Versions: 1 2 3 4 5 6 7 8 9 10 11 12 13 14 15 16 17 18 19 20 21 22 23 24 25 26 27 28 29 30 31 32 33 34 35 36 37 38 39 40 41 42 43 44 45 46 47 48 49 50
000
NZUS99 KSGF 160307
HRRSGF

HOURLY WEATHER
NATIONAL WEATHER SERVICE SPRINGFIELD MO
1000 PM CDT MON SEP 15 2014

......SGF CWA......

CITY           SKY/WX    TMP DP  RH WIND       PRES   REMARKS
SPRINGFIELD    CLOUDY    72  65  78 N12       30.16R
JOPLIN         CLOUDY    68  66  93 NE8       30.17R
WEST PLAINS    CLOUDY    72  67  84 NE6       30.15R
ROLLA          CLOUDY    63  57  81 NE7       30.16R
OSAGE BEACH    CLOUDY    64  57  77 NE3       30.18R
BRANSON        CLOUDY    73  66  78 NW6       30.16R

......SURROUNDING SGF CWA......

CITY           SKY/WX    TMP DP  RH WIND       PRES   REMARKS
CHANUTE        CLOUDY    68  59  73 NE10      30.19R
PARSONS        CLOUDY    69  61  75 VRB5      30.19R
COFFEYVILLE    CLOUDY    69  65  86 NE9       30.17R
EMPORIA        MOCLDY    60  53  77 NE14      30.22R
GROVE OK       MOCLDY    70  70 100 CALM      30.15F
ROGERS AR      MOCLDY    72  67  84 W9        30.17R
SILOAM SPRINGS MOCLDY    70  64  83 CALM      30.17R
HARRISON AR    MOCLDY    69  67  93 CALM      30.15R
NEAR YELLVILLE PTCLDY    72  64  78 SW3       30.12R

......KANSAS AND MISSOURI......

CITY           SKY/WX    TMP DP  RH WIND       PRES   REMARKS
KANSAS CTY INT CLEAR     53  50  89 N7        30.23R
DOWNTOWN KC    CLEAR     57  50  77 NE6       30.23R
COLUMBIA       CLOUDY    62  58  86 N14       30.18R
SEDALIA        CLOUDY    61  54  77 N13       30.21R
ST JOSEPH      PTCLDY    53  50  89 N7        30.25R
ST LOUIS       CLOUDY    63  59  87 N7        30.15R
SPIRIT OF STL  CLOUDY    63  59  87 N3        30.15R
KIRKSVILLE     CLOUDY    54  51  90 N8        30.23R
WICHITA        MOCLDY    68  57  68 NE9       30.20R
TOPEKA         CLEAR     56  52  86 N3        30.24R
OLATHE         CLEAR     57  50  77 NE6       30.22R

......TENNESSEE......

CITY           SKY/WX    TMP DP  RH WIND       PRES   REMARKS
MEMPHIS        CLOUDY    75  65  70 SW5       30.13R
NASHVILLE      MOCLDY    66  63  90 CALM      30.12F

......ARKANSAS.......

CITY           SKY/WX    TMP DP  RH WIND       PRES   REMARKS
FAYETTEVILLE   MOCLDY    68  67  96 CALM      30.16R
FT SMITH       PTCLDY    72  68  87 CALM      30.14R
LITTLE ROCK    MOCLDY    71  66  84 S5        30.13S

......OKLAHOMA.......

CITY           SKY/WX    TMP DP  RH WIND       PRES   REMARKS
TULSA          CLOUDY    77  69  76 NW3       30.12R
PONCA CITY     CLEAR     69  64  84 NE10      30.15R
MCALESTER      CLOUDY    71  69  93 CALM      30.15R
OKLAHOMA CITY  CLOUDY    75  68  78 S7        30.14R

......IOWA............

CITY           SKY/WX    TMP DP  RH WIND       PRES   REMARKS
DES MOINES     PTCLDY    53  46  77 N6        30.24S
QUAD CITIES    CLEAR     52  48  86 N3        30.20S

......ILLINOIS........

CITY           SKY/WX    TMP DP  RH WIND       PRES   REMARKS
QUINCY         MOCLDY    57  52  83 N13       30.19R
CHICAGO        PTCLDY    54  48  80 NW8       30.16R




USA.gov is the U.S. government's official web portal to all federal, state and local government web resources and services.